�������l�o���
Date,Time,MP-1(��Sv/h),MP-2(��Sv/h),MP-3(��Sv/h),MP-4(��Sv/h),MP-5(��Sv/h),MP-6(��Sv/h),MP-7(��Sv/h),MP-8(��Sv/h),����,����(m/s),���J
2016/01/30,00:00,1.413,2.065,2.030,2.063,1.954,0.639,-,1.315,�k�k��,7.1,�L
2016/01/30,00:10,1.410,2.060,2.023,2.059,1.951,0.640,-,1.315,�k��,5.6,�L
2016/01/30,00:20,1.407,2.052,2.020,2.054,1.942,0.638,-,1.313,�k��,5.3,�L
2016/01/30,00:30,1.407,2.047,2.017,2.051,1.935,0.638,-,1.310,�k��,5.6,�L
2016/01/30,00:40,1.403,2.045,2.011,2.047,1.932,0.635,-,1.310,�k�k��,7.3,�L
2016/01/30,00:50,1.400,2.037,2.007,2.037,1.926,0.636,-,1.308,�k�k��,6.9,�L
2016/01/30,01:00,1.397,2.033,2.001,2.038,1.917,0.634,-,1.308,�k�k��,6.7,�L
2016/01/30,01:10,1.393,2.028,1.994,2.034,1.916,0.632,-,1.307,�k�k��,8.1,�L
2016/01/30,01:20,1.390,2.017,1.985,2.022,1.903,0.631,-,1.303,�k�k��,8.8,�L
2016/01/30,01:30,1.387,2.010,1.979,2.013,1.893,0.629,-,1.303,�k�k��,7.8,�L
2016/01/30,01:40,1.385,2.003,1.970,2.010,1.883,0.630,-,1.302,�k��,7.0,�L
2016/01/30,01:50,1.378,1.995,1.961,2.002,1.874,0.625,-,1.298,�k�k��,6.4,�L
2016/01/30,02:00,1.377,1.982,1.951,1.990,1.861,0.624,-,1.297,�k�k��,6.5,�L
2016/01/30,02:10,1.368,1.973,1.944,1.988,1.851,0.621,-,1.297,�k�k��,6.2,�L
2016/01/30,02:20,1.362,1.967,1.932,1.977,1.841,0.621,-,1.292,�k�k��,6.4,�L
2016/01/30,02:30,1.358,1.968,1.931,1.971,1.831,0.618,-,1.292,�k�k��,6.5,�L
2016/01/30,02:40,1.358,1.963,1.922,1.963,1.823,0.617,-,1.288,�k�k��,7.1,�L
2016/01/30,02:50,1.352,1.957,1.911,1.960,1.818,0.617,-,1.285,�k�k��,7.1,�L
2016/01/30,03:00,1.348,1.950,1.905,1.952,1.809,0.614,-,1.287,�k�k��,6.4,�L
2016/01/30,03:10,1.347,1.943,1.896,1.945,1.805,0.614,-,1.283,�k�k��,6.2,�L
2016/01/30,03:20,1.343,1.940,1.897,1.943,1.798,0.610,-,1.283,�k��,7.6,�L
2016/01/30,03:30,1.342,1.935,1.889,1.941,1.795,0.610,-,1.282,�k�k��,6.9,�L
2016/01/30,03:40,1.337,1.930,1.886,1.934,1.783,0.608,-,1.280,�k�k��,7.1,�L
2016/01/30,03:50,1.333,1.925,1.879,1.929,1.779,0.607,-,1.277,�k��,8.1,�L
2016/01/30,04:00,1.330,1.920,1.876,1.924,1.772,0.608,-,1.275,�k��,9.0,�L
2016/01/30,04:10,1.327,1.917,1.870,1.920,1.766,0.607,-,1.272,�k�k��,8.1,�L
2016/01/30,04:20,1.323,1.910,1.863,1.915,1.761,0.605,-,1.272,�k��,6.6,�L
2016/01/30,04:30,1.322,1.907,1.861,1.912,1.757,0.605,-,1.275,�k��,7.4,�L
2016/01/30,04:40,1.323,1.905,1.858,1.909,1.751,0.605,-,1.272,�k��,7.1,�L
2016/01/30,04:50,1.320,1.902,1.856,1.903,1.747,0.602,-,1.273,�k��,7.2,�L
2016/01/30,05:00,1.318,1.897,1.849,1.903,1.740,0.601,-,1.270,�k�k��,7.9,�L
2016/01/30,05:10,1.315,1.892,1.844,1.898,1.738,0.602,-,1.272,�k�k��,7.7,�L
2016/01/30,05:20,1.310,1.885,1.840,1.895,1.735,0.599,-,1.268,�k�k��,7.3,�L
2016/01/30,05:30,1.308,1.883,1.835,1.893,1.733,0.599,-,1.268,�k�k��,8.2,�L
2016/01/30,05:40,1.310,1.883,1.832,1.889,1.729,0.596,-,1.270,�k�k��,7.5,�L
2016/01/30,05:50,1.307,1.880,1.828,1.885,1.724,0.597,-,1.272,�k�k��,8.6,�L
2016/01/30,06:00,1.303,1.875,1.825,1.885,1.719,0.597,-,1.273,�k�k��,9.0,�L
2016/01/30,06:10,1.298,1.870,1.817,1.876,1.714,0.594,-,1.277,�k�k��,9.7,�L
2016/01/30,06:20,1.297,1.865,1.813,1.871,1.707,0.595,-,1.275,�k�k��,8.4,�L
2016/01/30,06:30,1.297,1.862,1.808,1.869,1.703,0.593,-,1.273,�k�k��,8.7,�L
2016/01/30,06:40,1.295,1.860,1.805,1.868,1.700,0.593,-,1.270,�k�k��,9.0,�L
2016/01/30,06:50,1.297,1.857,1.805,1.868,1.701,0.592,-,1.273,�k�k��,8.6,�L
2016/01/30,07:00,1.293,1.857,1.807,1.869,1.699,0.592,-,1.270,�k�k��,7.5,�L
2016/01/30,07:10,1.293,1.858,1.804,1.867,1.698,0.592,-,1.272,�k�k��,7.8,�L
2016/01/30,07:20,1.292,1.855,1.803,1.862,1.699,0.591,-,1.272,�k�k��,8.0,�L
2016/01/30,07:30,1.287,1.853,1.803,1.866,1.701,0.591,-,1.270,�k�k��,8.8,�L
2016/01/30,07:40,1.287,1.852,1.803,1.864,1.698,0.590,-,1.272,�k�k��,9.4,�L
2016/01/30,07:50,1.287,1.853,1.803,1.864,1.694,0.590,-,1.272,�k��,8.7,�L
2016/01/30,08:00,1.285,1.852,1.801,1.862,1.697,0.589,-,1.272,�k��,9.3,�L
2016/01/30,08:10,1.287,1.852,1.802,1.864,1.696,0.591,-,1.273,�k�k��,8.1,�L
2016/01/30,08:20,1.288,1.852,1.799,1.861,1.695,0.591,-,1.272,�k��,8.2,�L
2016/01/30,08:30,1.290,1.855,1.804,1.860,1.695,0.589,-,1.273,�k��,8.2,�L
2016/01/30,08:40,1.288,1.855,1.801,1.864,1.696,0.589,-,1.273,�k��,7.6,��
2016/01/30,08:50,1.288,1.855,1.799,1.862,1.694,0.592,-,1.272,�k�k��,7.3,�L
2016/01/30,09:00,1.290,1.855,1.797,1.861,1.694,0.590,-,1.275,�k�k��,7.6,�L
2016/01/30,09:10,1.287,1.853,1.799,1.861,1.694,0.591,-,1.272,�k��,6.9,�L
2016/01/30,09:20,1.290,1.853,1.796,1.862,1.691,0.589,-,1.273,�k��,6.2,�L
2016/01/30,09:30,1.290,1.852,1.795,1.860,1.691,0.590,-,1.272,�k�k��,6.7,�L
2016/01/30,09:40,1.290,1.855,1.791,1.857,1.691,0.588,-,1.275,�k��,7.6,�L
2016/01/30,09:50,1.290,1.858,1.789,1.859,1.687,0.589,-,1.275,�k�k��,8.2,��
2016/01/30,10:00,1.287,1.858,1.788,1.859,1.689,0.587,-,1.273,�k�k��,7.7,��
2016/01/30,10:10,1.288,1.857,1.783,1.855,1.687,0.588,-,1.275,�k�k��,7.4,��
2016/01/30,10:20,1.287,1.857,1.781,1.856,1.685,0.588,-,1.273,�k�k��,8.1,��
2016/01/30,10:30,1.282,1.852,1.779,1.853,1.683,0.587,-,1.275,�k�k��,7.8,��
2016/01/30,10:40,1.280,1.857,1.780,1.852,1.684,0.585,-,1.275,�k�k��,8.2,��
2016/01/30,10:50,1.282,1.853,1.777,1.849,1.681,0.586,-,1.275,�k��,8.2,��
2016/01/30,11:00,1.275,1.855,1.774,1.844,1.681,0.586,-,1.273,�k�k��,7.2,��
2016/01/30,11:10,1.275,1.855,1.770,1.843,1.678,0.584,-,1.275,�k�k��,6.9,��
2016/01/30,11:20,1.270,1.853,1.771,1.840,1.676,0.586,-,1.275,�k�k��,5.9,��
2016/01/30,11:30,1.270,1.853,1.771,1.836,1.675,0.586,-,1.278,�k�k��,7.1,��
2016/01/30,11:40,1.268,1.857,1.766,1.830,1.676,0.586,-,1.277,�k�k��,8.3,��
2016/01/30,11:50,1.270,1.853,1.766,1.824,1.676,0.586,-,1.275,�k�k��,5.7,��
2016/01/30,12:00,1.267,1.855,1.764,1.823,1.674,0.588,-,1.275,�k�k��,5.1,��
2016/01/30,12:10,1.260,1.852,1.760,1.814,1.673,0.586,-,1.273,�k�k��,6.6,��
2016/01/30,12:20,1.260,1.855,1.760,1.808,1.676,0.586,-,1.275,�k�k��,6.0,��
2016/01/30,12:30,1.255,1.853,1.758,1.803,1.676,0.586,-,1.275,�k�k��,6.0,��
2016/01/30,12:40,1.253,1.855,1.757,1.795,1.677,0.586,-,1.278,�k�k��,5.8,��
2016/01/30,12:50,1.252,1.855,1.758,1.790,1.674,0.585,-,1.278,�k�k��,6.4,��
2016/01/30,13:00,1.250,1.855,1.757,1.783,1.676,0.586,-,1.280,�k�k��,5.8,��
2016/01/30,13:10,1.248,1.853,1.755,1.781,1.677,0.588,-,1.278,�k��,5.5,��
2016/01/30,13:20,1.245,1.857,1.753,1.776,1.680,0.586,-,1.282,�k�k��,6.1,��
2016/01/30,13:30,1.242,1.855,1.753,1.774,1.679,0.588,-,1.282,�k�k��,5.4,��
2016/01/30,13:40,1.243,1.857,1.754,1.774,1.682,0.587,-,1.282,�k�k��,4.7,��
2016/01/30,13:50,1.240,1.857,1.756,1.771,1.684,0.588,-,1.283,�k�k��,4.7,��
2016/01/30,14:00,1.240,1.855,1.755,1.769,1.685,0.587,-,1.287,�k�k��,4.6,��
2016/01/30,14:10,1.237,1.855,1.758,1.770,1.684,0.590,-,1.287,�k�k��,4.5,��
2016/01/30,14:20,1.238,1.857,1.758,1.772,1.686,0.589,-,1.287,�k�k��,5.1,��
2016/01/30,14:30,1.235,1.858,1.760,1.772,1.688,0.589,-,1.288,�k�k��,5.5,��
2016/01/30,14:40,1.235,1.862,1.758,1.773,1.687,0.591,-,1.287,�k�k��,5.5,��
2016/01/30,14:50,1.235,1.862,1.761,1.771,1.689,0.591,-,1.285,�k�k��,5.9,��
2016/01/30,15:00,1.235,1.862,1.760,1.776,1.688,0.590,-,1.292,�k�k��,5.6,��
2016/01/30,15:10,1.235,1.863,1.763,1.775,1.692,0.591,-,1.290,�k�k��,6.0,��
2016/01/30,15:20,1.237,1.867,1.762,1.780,1.694,0.592,-,1.290,�k�k��,5.5,��
2016/01/30,15:30,1.235,1.867,1.764,1.780,1.694,0.591,-,1.292,�k�k��,4.6,��
2016/01/30,15:40,1.237,1.867,1.767,1.783,1.698,0.593,-,1.293,�k�k��,4.4,��
2016/01/30,15:50,1.238,1.868,1.766,1.782,1.699,0.591,-,1.293,�k��,4.3,��
2016/01/30,16:00,1.238,1.872,1.771,1.784,1.703,0.593,-,1.292,�k��,4.5,��
2016/01/30,16:10,1.240,1.872,1.771,1.786,1.701,0.593,-,1.293,�k��,5.1,��
2016/01/30,16:20,1.240,1.872,1.772,1.789,1.706,0.592,-,1.293,�k��,5.7,��
2016/01/30,16:30,1.243,1.877,1.774,1.790,1.705,0.593,-,1.295,�k��,6.2,��
2016/01/30,16:40,1.242,1.875,1.772,1.791,1.706,0.596,-,1.295,�k��,5.4,��
2016/01/30,16:50,1.243,1.877,1.772,1.794,1.707,0.592,-,1.297,�k��,5.6,��
2016/01/30,17:00,1.243,1.878,1.775,1.796,1.712,0.594,-,1.297,�k��,5.9,��
2016/01/30,17:10,1.247,1.880,1.778,1.799,1.710,0.593,-,1.297,�k�k��,5.4,��
2016/01/30,17:20,1.243,1.880,1.776,1.794,1.712,0.593,-,1.297,�k�k��,5.5,��
2016/01/30,17:30,1.247,1.882,1.777,1.800,1.715,0.594,-,1.298,�k�k��,5.3,��
2016/01/30,17:40,1.248,1.882,1.779,1.801,1.712,0.594,-,1.297,�k�k��,5.9,��
2016/01/30,17:50,1.250,1.880,1.780,1.802,1.716,0.595,-,1.297,�k�k��,5.5,��
2016/01/30,18:00,1.250,1.885,1.782,1.802,1.716,0.595,-,1.302,�k�k��,5.5,��
2016/01/30,18:10,1.247,1.883,1.783,1.807,1.716,0.595,-,1.300,�k�k��,6.0,��
2016/01/30,18:20,1.248,1.887,1.783,1.805,1.718,0.595,-,1.298,�k��,7.2,��
2016/01/30,18:30,1.248,1.885,1.785,1.810,1.718,0.595,-,1.300,�k�k��,8.0,��
2016/01/30,18:40,1.250,1.890,1.787,1.807,1.719,0.595,-,1.302,�k��,7.7,��
2016/01/30,18:50,1.250,1.887,1.785,1.807,1.718,0.597,-,1.302,�k�k��,8.1,��
2016/01/30,19:00,1.253,1.885,1.787,1.810,1.723,0.597,-,1.302,�k�k��,7.7,��
2016/01/30,19:10,1.253,1.887,1.786,1.810,1.721,0.595,-,1.303,�k��,7.4,��
2016/01/30,19:20,1.253,1.890,1.790,1.811,1.723,0.595,-,1.303,�k�k��,6.7,��
2016/01/30,19:30,1.257,1.888,1.791,1.813,1.726,0.598,-,1.305,�k�k��,6.8,��
2016/01/30,19:40,1.257,1.892,1.793,1.814,1.727,0.598,-,1.307,�k�k��,5.8,��
2016/01/30,19:50,1.255,1.893,1.792,1.815,1.727,0.597,-,1.305,�k�k��,5.8,��
2016/01/30,20:00,1.255,1.892,1.793,1.818,1.727,0.597,-,1.307,�k��,5.9,��
2016/01/30,20:10,1.257,1.893,1.793,1.817,1.725,0.600,-,1.307,�k��,5.3,��
2016/01/30,20:20,1.257,1.897,1.794,1.818,1.728,0.599,-,1.307,�k��,4.9,��
2016/01/30,20:30,1.257,1.897,1.794,1.820,1.729,0.598,-,1.307,�k��,4.4,��
2016/01/30,20:40,1.258,1.897,1.799,1.824,1.732,0.597,-,1.307,�k�k��,5.2,��
2016/01/30,20:50,1.258,1.895,1.797,1.821,1.731,0.598,-,1.305,�k�k��,4.7,��
2016/01/30,21:00,1.258,1.898,1.798,1.826,1.734,0.598,-,1.307,�k�k��,5.3,��
2016/01/30,21:10,1.258,1.897,1.800,1.824,1.734,0.599,-,1.305,�k�k��,5.8,��
2016/01/30,21:20,1.260,1.900,1.801,1.824,1.736,0.599,-,1.305,�k,5.5,��
2016/01/30,21:30,1.260,1.900,1.802,1.825,1.734,0.600,-,1.307,�k,6.0,��
2016/01/30,21:40,1.262,1.900,1.801,1.826,1.733,0.598,-,1.310,-,CALM,��
2016/01/30,21:50,1.263,1.900,1.800,1.827,1.738,0.599,-,1.308,�k,5.6,��
2016/01/30,22:00,1.260,1.902,1.803,1.827,1.738,0.599,-,1.305,�k,4.6,��
2016/01/30,22:10,1.260,1.900,1.805,1.826,1.736,0.600,-,1.312,�k�k��,3.6,��
2016/01/30,22:20,1.263,1.903,1.807,1.830,1.738,0.597,-,1.308,�k�k��,2.3,��
2016/01/30,22:30,1.263,1.903,1.803,1.831,1.741,0.600,-,1.310,�k,1.9,��
2016/01/30,22:40,1.263,1.905,1.803,1.831,1.741,0.601,-,1.312,�k,3.6,��
2016/01/30,22:50,1.262,1.905,1.804,1.830,1.742,0.600,-,1.310,�k�k��,3.4,��
2016/01/30,23:00,1.262,1.905,1.807,1.833,1.738,0.600,-,1.308,�k�k��,3.9,��
2016/01/30,23:10,1.265,1.907,1.806,1.831,1.741,0.601,-,1.310,�k�k��,3.6,��
2016/01/30,23:20,1.265,1.907,1.806,1.830,1.744,0.601,-,1.312,�k�k��,3.4,��
2016/01/30,23:30,1.265,1.907,1.809,1.836,1.744,0.600,-,1.312,�k�k��,3.8,��
2016/01/30,23:40,1.267,1.908,1.810,1.835,1.740,0.602,-,1.313,�k,4.5,��
2016/01/30,23:50,1.267,1.908,1.811,1.836,1.745,0.602,-,1.310,�k�k��,5.0,��
